Location: *
(46.1006°N, 1.8394°E)
Time: 21:34:00
(UTC+00:00)

Cosmos 2366 rocket - Pass Details

Date: 20 September 2019
Orbit: 956 x 996 km, 82.9° (Epoch: 15 October)

Event Time Altitude Azimuth Distance (km) Brightness Sun altitude
Rises 19:37:47 0° 353° (N) 3,725 7.4 -18.2°
Reaches altitude 10° 19:40:21 10° 356° (N) 2,774 6.7 -18.6°
Maximum altitude 19:46:42 68° 79° (E) 1,072 4.0 -19.6°
Enters shadow 19:50:40 24° 157° (SSE) 1,924 5.1 -20.3°
